• In Kazakhstan
  • List of Countries
  • For 7 days
  • Water Temperature
  • Satellite Maps
  • Weather Map
  • News
  • Weather Widgets
  • user-avatar
    Login

    Hourly Weather Colorado Springs

    Today, 25 November, Saturday

    Time Temperature Precipitation Wind Pressure Humidity
    00:00 +7°C° 0 mm 1 mps 609 mmHg 61%
    01:00 +6°C° 0 mm 2 mps 609 mmHg 64%
    02:00 +5°C° 0 mm 2 mps 609 mmHg 66%
    03:00 +5°C° 0 mm 2 mps 609 mmHg 67%
    04:00 +5°C° 0 mm 2 mps 609 mmHg 68%
    05:00 +5°C° 0 mm 2 mps 609 mmHg 68%
    06:00 +5°C° 0 mm 2 mps 610 mmHg 66%
    07:00 +6°C° 0 mm 2 mps 610 mmHg 64%
    08:00 +6°C° 0 mm 2 mps 610 mmHg 62%
    09:00 +8°C° 0 mm 2 mps 611 mmHg 52%
    10:00 +11°C° 0 mm 3 mps 612 mmHg 41%
    11:00 +13°C° 0 mm 3 mps 613 mmHg 31%
    12:00 +14°C° 0 mm 3 mps 613 mmHg 27%
    13:00 +14°C° 0 mm 3 mps 613 mmHg 24%
    14:00 +16°C° 0 mm 3 mps 613 mmHg 21%
    15:00 +13°C° 0 mm 3 mps 613 mmHg 27%
    16:00 +12°C° 0 mm 2 mps 612 mmHg 33%
    17:00 +9°C° 0 mm 2 mps 611 mmHg 40%
    18:00 +8°C° 0 mm 2 mps 612 mmHg 42%
    19:00 +8°C° 0 mm 2 mps 612 mmHg 45%
    20:00 +7°C° 0 mm 2 mps 612 mmHg 48%
    21:00 +7°C° 0 mm 2 mps 612 mmHg 45%
    22:00 +7°C° 0 mm 2 mps 612 mmHg 43%
    23:00 +7°C° 0 mm 2 mps 612 mmHg 41%

    Tomorrow, 26 November, Sunday

    Time Temperature Precipitation Wind Pressure Humidity
    00:00 +7°C° 0 mm 2 mps 612 mmHg 38%
    01:00 +7°C° 0 mm 2 mps 612 mmHg 36%
    02:00 +7°C° 0 mm 2 mps 612 mmHg 33%
    03:00 +7°C° 0 mm 3 mps 612 mmHg 32%
    04:00 +7°C° 0 mm 3 mps 612 mmHg 30%
    05:00 +7°C° 0 mm 3 mps 612 mmHg 29%
    06:00 +8°C° 0 mm 3 mps 612 mmHg 29%
    07:00 +9°C° 0 mm 3 mps 613 mmHg 28%
    08:00 +9°C° 0 mm 3 mps 613 mmHg 28%
    09:00 +12°C° 0 mm 3 mps 614 mmHg 25%
    10:00 +16°C° 0 mm 3 mps 615 mmHg 21%
    11:00 +19°C° 0 mm 3 mps 615 mmHg 18%
    12:00 +20°C° 0 mm 3 mps 615 mmHg 18%
    13:00 +20°C° 0 mm 3 mps 614 mmHg 17%
    14:00 +21°C° 0 mm 3 mps 614 mmHg 17%
    15:00 +19°C° 0 mm 3 mps 613 mmHg 21%
    16:00 +16°C° 0 mm 3 mps 612 mmHg 25%
    17:00 +13°C° 0 mm 3 mps 611 mmHg 29%
    18:00 +12°C° 0 mm 3 mps 611 mmHg 31%
    19:00 +11°C° 0 mm 3 mps 610 mmHg 32%
    20:00 +10°C° 0 mm 3 mps 610 mmHg 33%
    21:00 +10°C° 0 mm 3 mps 610 mmHg 33%
    22:00 +10°C° 0 mm 3 mps 610 mmHg 33%
    23:00 +10°C° 0 mm 3 mps 610 mmHg 33%

    Day after tomorrow, 27 November, Monday

    Time Temperature Precipitation Wind Pressure Humidity
    00:00 +9°C° 0 mm 3 mps 609 mmHg 33%
    01:00 +8°C° 0 mm 4 mps 608 mmHg 34%
    02:00 +8°C° 0 mm 4 mps 608 mmHg 34%
    03:00 +8°C° 0 mm 4 mps 607 mmHg 35%
    04:00 +7°C° 0 mm 4 mps 607 mmHg 37%
    05:00 +7°C° 0 mm 4 mps 606 mmHg 38%
    06:00 +7°C° 0 mm 4 mps 606 mmHg 37%
    07:00 +8°C° 0 mm 4 mps 606 mmHg 37%
    08:00 +8°C° 0 mm 4 mps 606 mmHg 37%
    09:00 +12°C° 0 mm 4 mps 606 mmHg 30%
    10:00 +15°C° 0 mm 5 mps 606 mmHg 23%
    11:00 +17°C° 0 mm 6 mps 606 mmHg 17%
    12:00 +18°C° 0 mm 7 mps 605 mmHg 16%
    13:00 +20°C° 0 mm 7 mps 605 mmHg 14%
    14:00 +21°C° 0 mm 8 mps 604 mmHg 13%
    15:00 +18°C° 0 mm 7 mps 604 mmHg 15%
    16:00 +16°C° 0 mm 5 mps 603 mmHg 18%
    17:00 +14°C° 0 mm 4 mps 603 mmHg 20%
    18:00 +12°C° 0 mm 4 mps 602 mmHg 23%
    19:00 +11°C° 0 mm 3 mps 602 mmHg 26%
    20:00 +10°C° 0 mm 2 mps 601 mmHg 29%
    21:00 +9°C° 0 mm 2 mps 602 mmHg 31%
    22:00 +8°C° 0 mm 2 mps 602 mmHg 33%
    23:00 +8°C° 0 mm 2 mps 602 mmHg 35%

    28 November, Tuesday

    Time Temperature Precipitation Wind Pressure Humidity
    00:00 +5°C° 0 mm 4 mps 603 mmHg 46%
    01:00 +2°C° 0 mm 7 mps 603 mmHg 57%
    02:00 -1°C° 0 mm 9 mps 604 mmHg 68%
    03:00 -2°C° 0.1 mm 8 mps 605 mmHg 68%
    04:00 -2°C° 0.1 mm 7 mps 606 mmHg 68%
    05:00 -2°C° 0.1 mm 6 mps 607 mmHg 68%
    06:00 -1°C° 0 mm 5 mps 608 mmHg 65%
    07:00 -1°C° 0 mm 4 mps 609 mmHg 62%
    08:00 0°C° 0 mm 3 mps 610 mmHg 58%
    09:00 +2°C° 0 mm 3 mps 611 mmHg 51%
    10:00 +4°C° 0 mm 2 mps 611 mmHg 44%
    11:00 +6°C° 0 mm 2 mps 612 mmHg 37%
    12:00 +6°C° 0 mm 2 mps 611 mmHg 34%
    13:00 +7°C° 0 mm 2 mps 611 mmHg 31%
    14:00 +8°C° 0 mm 2 mps 611 mmHg 28%
    15:00 +7°C° 0 mm 3 mps 610 mmHg 33%
    16:00 +4°C° 0 mm 3 mps 610 mmHg 37%
    17:00 +3°C° 0 mm 3 mps 609 mmHg 42%
    18:00 +2°C° 0 mm 3 mps 609 mmHg 43%
    19:00 +2°C° 0 mm 3 mps 609 mmHg 44%
    20:00 +1°C° 0 mm 3 mps 609 mmHg 45%
    21:00 +1°C° 0 mm 3 mps 609 mmHg 46%
    22:00 +1°C° 0 mm 3 mps 609 mmHg 46%
    23:00 +1°C° 0 mm 3 mps 609 mmHg 47%

    29 November, Wednesday

    Time Temperature Precipitation Wind Pressure Humidity
    00:00 +1°C° 0 mm 3 mps 608 mmHg 46%
    01:00 +1°C° 0 mm 3 mps 608 mmHg 45%
    02:00 +1°C° 0 mm 3 mps 607 mmHg 44%
    03:00 +1°C° 0 mm 3 mps 607 mmHg 44%
    04:00 +1°C° 0 mm 3 mps 606 mmHg 45%
    05:00 +1°C° 0 mm 3 mps 606 mmHg 45%
    06:00 +1°C° 0 mm 3 mps 606 mmHg 43%
    07:00 +2°C° 0 mm 3 mps 606 mmHg 41%
    08:00 +3°C° 0 mm 3 mps 606 mmHg 39%
    09:00 +7°C° 0 mm 3 mps 606 mmHg 32%
    10:00 +8°C° 0 mm 4 mps 607 mmHg 25%
    11:00 +12°C° 0 mm 4 mps 607 mmHg 18%
    12:00 +13°C° 0 mm 4 mps 607 mmHg 17%
    13:00 +14°C° 0 mm 4 mps 607 mmHg 15%
    14:00 +16°C° 0 mm 3 mps 607 mmHg 14%
    15:00 +12°C° 0 mm 3 mps 606 mmHg 20%
    16:00 +9°C° 0 mm 3 mps 606 mmHg 26%
    17:00 +6°C° 0 mm 2 mps 605 mmHg 32%
    18:00 +4°C° 0 mm 3 mps 606 mmHg 33%
    19:00 +4°C° 0 mm 4 mps 606 mmHg 35%
    20:00 +2°C° 0 mm 5 mps 607 mmHg 37%
    21:00 +1°C° 0 mm 5 mps 608 mmHg 41%
    22:00 +1°C° 0 mm 5 mps 608 mmHg 45%
    23:00 0°C° 0 mm 5 mps 609 mmHg 49%

    30 November, Thursday

    Time Temperature Precipitation Wind Pressure Humidity
    00:00 -1°C° 0 mm 5 mps 609 mmHg 55%
    01:00 -1°C° 0 mm 5 mps 610 mmHg 61%
    02:00 -2°C° 0 mm 5 mps 610 mmHg 67%
    03:00 -2°C° 0.4 mm 5 mps 610 mmHg 72%
    04:00 -4°C° 0.4 mm 5 mps 611 mmHg 78%
    05:00 -4°C° 0.4 mm 5 mps 611 mmHg 83%
    06:00 -5°C° 0.6 mm 5 mps 612 mmHg 84%
    07:00 -5°C° 0.6 mm 5 mps 612 mmHg 84%
    08:00 -6°C° 0.6 mm 5 mps 613 mmHg 84%
    09:00 -5°C° 0.3 mm 5 mps 613 mmHg 82%
    10:00 -5°C° 0.3 mm 5 mps 613 mmHg 79%
    11:00 -4°C° 0.3 mm 4 mps 613 mmHg 76%
    12:00 -3°C° 0.1 mm 4 mps 613 mmHg 73%
    13:00 -2°C° 0.1 mm 3 mps 613 mmHg 70%
    14:00 -2°C° 0.1 mm 3 mps 613 mmHg 67%
    15:00 -2°C° 0 mm 2 mps 613 mmHg 71%
    16:00 -3°C° 0 mm 2 mps 613 mmHg 75%
    17:00 -2°C° 0 mm 1 mps 613 mmHg 79%
    18:00 -2°C° 0 mm 1 mps 613 mmHg 80%
    19:00 -3°C° 0 mm 1 mps 613 mmHg 81%
    20:00 -5°C° 0 mm 2 mps 613 mmHg 81%
    21:00 -5°C° 0 mm 2 mps 613 mmHg 81%
    22:00 -6°C° 0 mm 2 mps 613 mmHg 80%
    23:00 -6°C° 0 mm 2 mps 613 mmHg 80%
    Show more